User: anonymous   Login
Location: Wellington
(41.3000°S, 174.7830°E)
Time: 14:49:58
(UTC+12:00)
Language:

Cosmos 2360 Rocket - Orbit

View from above orbital plane
View from above orbital plane
View from above satellite
View from above satellite

Ground track
Ground track

The orbit data is extracted from the following two-line orbital elements,

1 25407U 98045B   19140.94445982 +.00000243 +00000-0 +14790-3 0  9997
2 25407 071.0125 004.5845 0009235 225.7421 134.2945 14.15785528075381
Epoch (UTC): 20 May 2019 22:40:01
Eccentricity: 0.0009235
inclination: 71.0125°
perigee height: 833 km
apogee height: 846 km
right ascension of ascending node: 4.5845°
argument of perigee: 225.7421°
revolutions per day: 14.15785528
mean anomaly at epoch: 134.2945°
orbit number at epoch: 7538

The dashed part of the orbit path shows where the satellite is in the earth's shadow,  

DLR